FW1998 Weather Reports


Display with metric or nautical units.
time (UTC)temp
F
wind
direction
speed
MPH
gust
MPH
rain 1hr
in
rain 24hr
in
rain mn
in
humidity
%
barometer
mb
20210419031757 39 33 0.0 0.0 0.00 0.00 0.00 99 1018.3
20210419031204 39 32 0.0 0.0 0.00 0.00 0.00 99 1018.6
20210419030548 39 33 0.0 0.0 0.00 0.00 0.00 99 1018.3
20210419030011 39 33 0.0 0.0 0.00 0.00 0.00 99 1018.3
20210419025718 39 33 0.0 0.0 0.00 0.00 0.00 99 1018.3
20210419024832 39 34 0.0 0.0 0.00 0.00 0.00 99 1018.6
20210419024153 39 34 0.0 0.0 0.00 0.00 0.00 99 1018.3
20210419023558 39 34 0.0 0.0 0.00 0.00 0.00 99 1018.6
20210419022956 39 36 0.0 0.0 0.00 0.00 0.00 99 1018.6
20210419022744 39 35 0.0 0.0 0.00 0.00 0.00 99 1018.6
20210419021804 39 35 0.0 0.0 0.00 0.00 0.00 99 1018.6
20210419021200 38 34 0.0 0.0 0.00 0.00 0.00 99 1018.6
20210419020550 38 34 0.0 0.0 0.00 0.00 0.00 99 1018.6
20210419020000 38 34 0.0 0.0 0.00 0.00 0.00 99 1018.6
20210419015712 38 32 0.0 0.0 0.00 0.00 0.00 99 1018.6
20210419014804 38 34 0.0 0.0 0.00 0.00 0.00 99 1018.6
20210419014150 38 38 0.0 0.0 0.00 0.00 0.00 99 1018.6
20210419013600 38 41 0.0 0.0 0.00 0.00 0.00 99 1018.6
20210419012949 39 57 0.0 0.0 0.00 0.00 0.00 99 1018.6
20210419012743 39 56 0.0 0.0 0.00 0.00 0.00 99 1019.0
20210419011802 39 74 0.0 0.0 0.00 0.00 0.00 99 1019.0
20210419011159 39 72 0.0 0.0 0.00 0.00 0.00 99 1018.6
20210419010552 39 78 0.0 0.0 0.00 0.00 0.00 99 1018.6
20210419010020 39 81 0.0 0.0 0.00 0.00 0.00 99 1018.6
20210419005750 40 83 0.0 0.0 0.00 0.00 0.00 99 1018.6
20210419004854 40 83 0.0 0.0 0.00 0.00 0.00 99 1019.0
20210419004154 40 87 0.0 0.0 0.00 0.00 0.00 99 1018.6
20210419003601 40 90 0.0 0.0 0.00 0.00 0.00 99 1019.0
20210419003212 40 97 0.0 0.0 0.00 0.00 0.00 99 1019.0
20210419002915 41 98 0.0 0.0 0.00 0.00 0.00 99 1019.0
20210419001840 41 96 0.0 0.0 0.00 0.00 0.00 99 1019.0
20210419001157 41 108 0.0 0.0 0.00 0.00 0.00 99 1019.0
20210419000602 41 99 0.0 0.0 0.00 0.00 0.00 99 1019.0
20210418235959 41 91 0.0 0.0 0.00 0.00 0.00 99 1019.0
20210418235718 41 99 0.0 0.0 0.00 0.00 0.00 99 1019.0
20210418234837 41 96 0.0 0.0 0.00 0.00 0.00 99 1019.3
20210418234150 41 89 0.0 0.0 0.00 0.00 0.00 99 1019.3
20210418233559 41 93 0.0 0.0 0.00 0.00 0.00 99 1019.3
20210418233137 41 101 0.0 0.0 0.00 0.00 0.00 99 1019.3
20210418232935 41 98 0.0 0.0 0.00 0.00 0.00 99 1019.3
20210418231934 42 102 0.0 0.0 0.00 0.00 0.00 99 1019.3
20210418231158 42 103 0.0 0.0 0.00 0.00 0.00 99 1019.6
20210418230553 42 108 0.0 0.0 0.00 0.00 0.00 99 1019.3
20210418225958 42 108 0.0 0.0 0.00 0.00 0.00 99 1019.6
20210418225831 42 109 0.0 0.0 0.00 0.00 0.00 99 1019.6
20210418224827 42 110 0.0 0.0 0.00 0.00 0.00 99 1019.6
20210418224152 42 112 0.0 0.0 0.00 0.00 0.00 99 1019.3
20210418223600 42 112 0.0 0.0 0.00 0.00 0.00 99 1019.6
20210418223031 42 115 0.0 0.0 0.00 0.00 0.00 99 1019.3
20210418222829 42 116 0.0 0.0 0.00 0.00 0.00 99 1019.6
20210418221906 42 107 0.0 0.0 0.00 0.00 0.00 99 1019.6
20210418221159 42 117 0.0 0.0 0.00 0.00 0.00 99 1019.6
20210418220554 42 115 0.0 0.0 0.00 0.00 0.00 99 1019.6
20210418215959 42 117 0.0 0.0 0.00 0.00 0.01 99 1019.6
20210418215817 42 117 0.0 0.0 0.00 0.00 0.01 99 1019.6
20210418214838 42 122 0.0 0.0 0.00 0.00 0.01 99 1019.6
20210418214153 43 125 0.0 0.0 0.00 0.00 0.01 99 1019.6
20210418213600 43 130 0.0 0.0 0.00 0.00 0.01 99 1019.6
20210418212951 43 134 0.0 0.0 0.00 0.00 0.01 99 1019.6
20210418212823 43 132 0.0 0.0 0.00 0.00 0.01 99 1019.6
20210418211813 43 137 0.0 0.0 0.00 0.00 0.01 99 1019.6
20210418211158 43 136 0.0 0.0 0.00 0.00 0.01 99 1019.6
20210418210550 43 135 0.0 0.0 0.00 0.00 0.01 99 1019.6
20210418210035 43 140 0.0 0.0 0.00 0.00 0.01 99 1019.6
20210418205911 43 142 0.0 0.0 0.00 0.00 0.01 99 1019.6
20210418204835 43 148 0.0 0.0 0.00 0.00 0.01 99 1019.6
20210418204148 43 153 0.0 0.0 0.00 0.00 0.01 99 1019.6
20210418203602 43 158 0.0 0.0 0.00 0.00 0.01 99 1019.6
20210418202950 43 164 0.0 0.0 0.00 0.00 0.01 99 1019.6
20210418202819 43 170 0.0 0.0 0.00 0.00 0.01 99 1019.6
20210418201810 43 208 0.0 0.0 0.00 0.00 0.01 99 1019.6
20210418201206 43 184 0.0 0.0 0.00 0.00 0.01 99 1019.6
20210418200551 43 192 0.0 0.0 0.00 0.00 0.01 99 1019.6
20210418200023 44 198 0.0 0.0 0.00 0.00 0.01 99 1019.6
20210418195758 44 201 0.0 0.0 0.00 0.00 0.01 99 1019.6
20210418194848 44 210 0.0 0.0 0.00 0.00 0.01 99 1019.6
20210418194150 44 215 0.0 0.0 0.00 0.00 0.01 99 1019.6
20210418193558 45 219 0.0 0.0 0.00 0.00 0.01 99 1019.6
20210418193044 45 224 0.0 0.0 0.00 0.00 0.01 99 1019.6
20210418192858 45 232 0.0 0.0 0.00 0.00 0.01 99 1019.6
20210418191756 45 230 0.0 0.0 0.00 0.00 0.01 99 1019.6
20210418191158 46 236 0.0 0.0 0.00 0.00 0.01 96 1019.3
20210418190549 46 237 0.0 0.0 0.00 0.00 0.01 98 1019.3
20210418190001 46 254 0.0 0.0 0.00 0.00 0.01 98 1019.3
20210418185643 46 242 0.0 0.0 0.00 0.00 0.01 97 1019.6
20210418184801 47 244 0.0 0.0 0.00 0.00 0.01 95 1019.6
20210418184150 47 247 0.0 0.0 0.00 0.00 0.01 95 1019.3
20210418183556 48 247 0.0 0.0 0.00 0.00 0.01 95 1019.3
20210418182953 48 248 0.0 0.0 0.00 0.00 0.01 94 1019.3
20210418182708 48 247 0.0 0.0 0.00 0.00 0.01 94 1019.6
20210418181759 48 247 0.0 0.0 0.00 0.00 0.01 93 1019.3
20210418181204 49 245 0.0 0.0 0.00 0.00 0.01 91 1019.3
20210418180552 49 245 0.0 0.0 0.00 0.00 0.01 90 1019.3
20210418175959 49 245 0.0 0.0 0.00 0.00 0.01 88 1019.3
20210418175734 49 246 0.0 0.0 0.00 0.00 0.01 86 1019.3
20210418174759 49 246 0.0 0.0 0.00 0.00 0.01 85 1019.3
20210418174150 49 247 0.0 0.0 0.00 0.00 0.01 85 1019.3
20210418173559 49 246 0.0 0.0 0.00 0.00 0.01 85 1019.0
20210418173054 50 248 0.0 0.0 0.00 0.00 0.01 84 1019.3
20210418172851 50 247 0.0 0.0 0.00 0.00 0.01 84 1019.0
20210418171813 50 246 0.0 0.0 0.00 0.00 0.01 84 1019.3
20210418171201 50 242 0.0 0.0 0.00 0.00 0.01 85 1019.0
20210418170552 50 247 0.0 0.0 0.00 0.00 0.01 84 1019.0
20210418170020 50 246 0.0 0.0 0.00 0.00 0.01 84 1019.3
20210418165552 50 235 0.0 4.0 0.00 0.00 0.01 84 1019.0
20210418164817 50 242 0.0 4.0 0.00 0.00 0.01 84 1019.0
20210418164151 50 251 0.0 0.0 0.00 0.00 0.01 83 1019.0
20210418163618 50 244 0.0 0.0 0.00 0.00 0.01 83 1019.0
20210418163125 50 248 0.0 0.0 0.00 0.00 0.01 82 1019.0
20210418162907 50 243 0.0 4.0 0.00 0.00 0.01 83 1019.0
20210418161938 50 247 0.0 4.0 0.00 0.00 0.01 83 1018.6
20210418161201 50 243 1.0 8.0 0.00 0.00 0.01 85 1018.6
20210418160551 50 242 0.0 4.0 0.00 0.00 0.01 85 1018.6
20210418160000 50 259 1.0 8.0 0.00 0.00 0.01 84 1019.0
20210418155703 51 246 0.0 4.0 0.00 0.00 0.01 83 1019.0
20210418154832 51 239 0.0 4.0 0.00 0.00 0.01 82 1019.0
20210418154152 51 246 0.0 8.0 0.00 0.00 0.01 80 1019.0
20210418153559 51 243 1.0 4.0 0.00 0.00 0.01 83 1018.6
20210418152951 51 251 0.0 4.0 0.00 0.00 0.01 81 1018.6
20210418152611 51 267 1.0 8.0 0.00 0.00 0.01 82 1018.6
20210418151841 51 238 0.0 4.0 0.00 0.00 0.01 81 1018.6
20210418151159 51 241 1.0 8.0 0.00 0.00 0.01 79 1018.6
20210418150554 51 221 0.0 4.0 0.00 0.00 0.01 81 1018.6
20210418145958 51 237 1.0 8.0 0.00 0.00 0.01 79 1018.6
20210418145725 51 250 1.0 8.0 0.00 0.00 0.01 81 1019.0
20210418144827 51 264 1.0 4.0 0.00 0.00 0.01 81 1019.0
20210418144151 51 177 0.0 4.0 0.00 0.00 0.01 80 1018.6
20210418143610 51 243 0.0 4.0 0.00 0.00 0.01 79 1018.6
20210418142950 51 246 0.0 4.0 0.00 0.00 0.01 80 1019.0
20210418142743 51 243 1.0 8.0 0.00 0.00 0.01 80 1019.0
20210418141918 52 171 1.0 8.0 0.00 0.00 0.01 79 1019.0
20210418141159 52 255 1.0 8.0 0.00 0.00 0.01 81 1019.0
20210418140550 52 242 1.0 8.0 0.00 0.00 0.01 79 1019.0
20210418140032 51 240 0.0 8.0 0.00 0.00 0.01 81 1019.0
20210418135835 51 244 0.0 4.0 0.00 0.00 0.01 78 1019.0
20210418134916 51 258 0.0 4.0 0.00 0.00 0.01 82 1019.0
20210418134150 50 242 0.0 0.0 0.00 0.00 0.01 80 1019.0
20210418133617 50 242 0.0 4.0 0.00 0.00 0.01 82 1019.0
20210418132948 49 251 0.0 4.0 0.00 0.00 0.01 82 1019.0
20210418132641 49 252 0.0 4.0 0.00 0.00 0.01 85 1019.3
20210418131755 49 254 0.0 4.0 0.00 0.00 0.01 84 1019.3
20210418131158 49 247 0.0 4.0 0.00 0.00 0.01 86 1019.3
20210418130555 49 245 0.0 4.0 0.00 0.00 0.01 87 1019.3
20210418130220 49 246 0.0 4.0 0.00 0.00 0.01 86 1019.3
20210418130023 49 313 0.0 4.0 0.00 0.00 0.01 87 1019.0
20210418125056 49 249 2.0 8.0 0.00 0.00 0.01 86 1019.3
20210418124229 49 197 0.0 4.0 0.00 0.00 0.01 85 1019.3
20210418123936 49 247 0.0 0.0 0.00 0.00 0.01 85 1019.0
20210418123433 49 240 0.0 4.0 0.00 0.00 0.01 83 1019.0
20210418122956 49 255 0.0 0.0 0.00 0.00 0.01 83 1019.0
20210418121839 49 236 1.0 8.0 0.00 0.00 0.01 84 1019.0
20210418121220 49 258 0.0 4.0 0.00 0.00 0.01 85 1019.3
20210418120653 49 255 1.0 8.0 0.00 0.00 0.01 84 1019.3
20210418120157 49 245 1.0 8.0 0.00 0.00 0.01 86 1019.3
20210418115902 49 160 2.0 8.0 0.00 0.00 0.01 85 1019.3
20210418114828 48 238 1.0 8.0 0.00 0.00 0.01 85 1019.3
20210418114159 48 271 1.0 8.0 0.00 0.00 0.01 86 1019.3
20210418113558 48 240 1.0 4.0 0.00 0.00 0.01 86 1019.3
20210418113052 48 247 1.0 4.0 0.00 0.00 0.01 89 1019.3
20210418112852 48 265 1.0 8.0 0.00 0.00 0.01 87 1019.3
20210418111801 48 234 1.0 8.0 0.00 0.00 0.01 88 1019.3
20210418111200 48 249 0.0 4.0 0.00 0.00 0.01 88 1019.6
20210418110549 48 255 0.0 4.0 0.00 0.00 0.01 88 1019.3
20210418110110 48 246 0.0 4.0 0.00 0.00 0.01 86 1019.3
20210418105833 47 259 1.0 8.0 0.00 0.00 0.01 87 1019.6
20210418104826 47 231 1.0 8.0 0.00 0.00 0.01 87 1019.3
20210418104150 46 249 0.0 4.0 0.00 0.00 0.01 87 1019.6
20210418103629 46 268 1.0 4.0 0.00 0.00 0.01 89 1019.6
20210418103022 46 247 1.0 4.0 0.00 0.00 0.01 90 1019.6
20210418102832 46 243 0.0 4.0 0.00 0.00 0.01 89 1019.6
20210418101844 46 240 0.0 4.0 0.00 0.00 0.01 91 1019.6
20210418101207 46 246 0.0 4.0 0.00 0.00 0.01 93 1019.6
20210418100550 46 246 1.0 4.0 0.00 0.00 0.01 93 1019.6
20210418100031 46 264 1.0 8.0 0.00 0.00 0.01 91 1019.6
20210418095856 46 218 0.0 4.0 0.00 0.00 0.01 93 1019.6
20210418094844 46 229 0.0 4.0 0.00 0.00 0.01 92 1019.6
20210418094152 46 232 1.0 4.0 0.00 0.00 0.01 94 1019.6
20210418093559 46 239 1.0 8.0 0.00 0.00 0.01 93 1019.6
20210418092948 46 255 1.0 8.0 0.00 0.00 0.01 93 1019.6
20210418092626 46 247 0.0 4.0 0.00 0.00 0.01 94 1019.6
20210418091824 45 249 1.0 8.0 0.00 0.00 0.01 93 1019.6
20210418091158 45 248 0.0 4.0 0.00 0.00 0.01 94 1019.6
20210418090550 45 245 0.0 4.0 0.00 0.00 0.01 95 1019.6
20210418090041 45 248 0.0 4.0 0.00 0.00 0.01 97 1019.6
20210418085821 45 244 0.0 4.0 0.00 0.00 0.01 99 1019.6
20210418084832 44 259 0.0 4.0 0.00 0.00 0.01 97 1019.6
20210418084150 44 243 0.0 4.0 0.00 0.00 0.01 96 1019.6
20210418083608 44 225 0.0 0.0 0.00 0.00 0.01 99 1019.6
20210418082954 44 231 0.0 0.0 0.00 0.00 0.01 97 1019.6
20210418082706 44 252 0.0 0.0 0.00 0.00 0.01 97 1019.6
20210418081750 43 244 0.0 0.0 0.00 0.00 0.01 98 1019.6
20210418081157 43 240 0.0 0.0 0.00 0.00 0.01 99 1019.6
20210418080557 43 243 0.0 0.0 0.00 0.00 0.01 99 1019.6
20210418080136 42 252 0.0 0.0 0.00 0.00 0.01 99 1019.6
20210418075926 42 246 0.0 4.0 0.00 0.00 0.01 99 1019.6
20210418074823 42 241 0.0 0.0 0.00 0.00 0.01 99 1019.6
20210418074152 42 240 0.0 0.0 0.00 0.00 0.01 99 1019.6
20210418073558 42 243 0.0 0.0 0.00 0.00 0.01 99 1019.6
20210418072950 41 238 0.0 0.0 0.00 0.00 0.01 99 1019.6
20210418072530 41 238 0.0 0.0 0.00 0.00 0.01 99 1019.6
20210418071751 41 241 0.0 0.0 0.00 0.00 0.01 99 1019.6
20210418071157 40 241 0.0 0.0 0.00 0.00 0.01 99 1019.6
20210418070550 40 242 0.0 0.0 0.00 0.00 0.01 99 1020.0
20210418065958 40 244 0.0 0.0 0.00 0.00 0.01 99 1019.6
20210418065736 40 241 0.0 0.0 0.00 0.00 0.01 99 1019.6
20210418064844 39 242 0.0 0.0 0.00 0.00 0.01 99 1019.6
20210418064151 39 239 0.0 0.0 0.00 0.00 0.01 99 1019.6
20210418063559 39 243 0.0 0.0 0.00 0.00 0.01 99 1019.6
20210418062950 39 241 0.0 0.0 0.00 0.00 0.01 99 1019.6
20210418062730 39 241 0.0 0.0 0.00 0.00 0.01 99 1019.6
20210418061751 39 245 0.0 0.0 0.00 0.00 0.01 99 1019.6
20210418061158 38 245 0.0 0.0 0.00 0.00 0.01 99 1019.6
20210418060550 38 240 0.0 0.0 0.00 0.00 0.01 99 1019.6
20210418060128 38 240 0.0 0.0 0.00 0.00 0.01 99 1019.6
20210418055850 38 238 0.0 0.0 0.00 0.00 0.01 99 1019.6
20210418054928 38 232 0.0 0.0 0.00 0.00 0.01 99 1019.6
20210418054152 38 220 0.0 0.0 0.00 0.00 0.01 99 1019.6
20210418053600 38 207 0.0 0.0 0.00 0.00 0.01 99 1019.6
20210418053039 37 178 0.0 0.0 0.00 0.00 0.01 99 1019.6
20210418052801 37 142 0.0 0.0 0.00 0.00 0.01 99 1019.6
20210418051853 37 116 0.0 0.0 0.00 0.00 0.01 99 1019.6
20210418051217 37 101 0.0 0.0 0.00 0.00 0.01 99 1019.6
20210418050551 37 69 0.0 0.0 0.00 0.00 0.01 99 1019.3
20210418045957 37 30 0.0 0.0 0.00 0.00 0.01 99 1019.6
20210418045703 37 33 0.0 0.0 0.00 0.00 0.01 99 1019.6
20210418044845 37 35 0.0 0.0 0.00 0.00 0.01 99 1019.3
20210418044148 37 37 0.0 0.0 0.00 0.00 0.01 99 1019.6
20210418043558 37 38 0.0 0.0 0.00 0.00 0.01 99 1019.3
20210418042950 37 38 0.0 0.0 0.00 0.00 0.01 99 1019.3
20210418042830 37 39 0.0 0.0 0.00 0.00 0.01 99 1019.3
20210418041916 37 38 0.0 0.0 0.00 0.00 0.01 99 1019.3
20210418041200 37 38 0.0 0.0 0.00 0.00 0.01 99 1019.3
20210418040551 37 38 0.0 0.0 0.00 0.00 0.01 99 1019.3
20210418035957 37 37 0.0 0.0 0.00 0.00 0.01 99 1019.3
20210418035655 37 37 0.0 0.0 0.00 0.00 0.01 99 1019.3
20210418034832 37 36 0.0 0.0 0.00 0.00 0.01 99 1019.3
20210418034153 37 36 0.0 0.0 0.00 0.00 0.01 99 1019.3
20210418033559 37 35 0.0 0.0 0.00 0.00 0.01 99 1019.3
20210418033040 37 35 0.0 0.0 0.00 0.00 0.01 99 1019.0
20210418032855 37 34 0.0 0.0 0.00 0.00 0.01 99 1019.3